Location: Seven Kings
(51.5667°N, 0.1000°E)
Time: 02:46:27
(UTC+00:00)

Cosmos 2228 - Pass Details

Date: 29 October 2020
Orbit: 590 x 617 km, 82.5° (Epoch: 24 November)

Event Time Altitude Azimuth Distance (km) Brightness Sun altitude
Rises 17:23:24 0° 185° (S) 2,817 6.7 -7.7°
Reaches altitude 10° 17:25:35 10° 184° (S) 1,924 5.8 -8.0°
Maximum altitude 17:29:49 79° 100° (E) 615 2.9 -8.7°
Drops below altitude 10° 17:34:08 10° 13° (NNE) 1,954 5.4 -9.3°
Sets 17:36:22 0° 12° (NNE) 2,867 6.3 -9.7°
